カタログに戻る

STARLINK-37853

運用中通信SSO
NORAD 69498·PAYLOAD·🇺🇸 United States

打ち上げ Jun 11, 2026 から Vandenberg Space Force Base

Loading…

次のパス (今後24時間)

TLE

最新Source: CelesTrak SupGP

元期: Sep 14, 2026, 22:53 UTC

1 69498C 26131W   26257.95395833  .00051461  00000+0  15975-2 0  2578
2 69498  97.2840 281.8528 0001619  97.9858 180.4114 15.33411988    18

AllMySatでSTARLINK-37853をリアルタイム追跡

Download on the App Store